Regional Weather Roundup
Issued by NWS New Orleans/Baton Rouge, LA

Home | Current Version | Previous Version | Text Only | Print | Product List | Glossary On
Versions: 1 2 3 4 5 6 7 8 9 10 11 12 13 14 15 16 17 18 19 20 21 22 23 24 25 26 27
000
ASUS44 KLIX 281713
RWRLIX
NEW ORLEANS REGIONAL WEATHER ROUNDUP
NATIONAL WEATHER SERVICE NEW ORLEANS LA
1100 AM CST TUE FEB 28 2017

NOTE: "FAIR" INDICATES FEW OR NO CLOUDS BELOW 12,000 FEET WITH NO
      SIGNIFICANT WEATHER AND/OR OBSTRUCTIONS TO VISIBILITY.
      SKY/WX - SKY CONDITION AND SIGNIFICANT WEATHER.
      TMP - AIR TEMPERATURE.     DP    - DEWPOINT TEMPERATURE.
      RH  - RELATIVE HUMIDITY.   PRES  - PRESSURE.
      HI  - HEAT INDEX.          WCI   - WIND CHILL INDEX.

*  THESE STATIONS ARE NOT NWS OR FAA STATIONS AND ARE NOT UNDER
   NWS QUALITY CONTROL.

LAZ038-040-048-061>063-065>067-069-281800-
SOUTHEAST LOUISIANA

CITY           SKY/WX    TMP DP  RH WIND       PRES   REMARKS
N.O. INTL ARPT PTSUNNY   77  70  79 S16       30.14F
N.O. LAKEFRONT MOSUNNY   81  70  69 S20       30.15F
N.O. DOWNTOWN*   N/A     78  69  73 S14G20    30.16S
RESERVE*       PTSUNNY   81  71  71 S14G20    30.13F
SLIDELL        PTSUNNY   78  69  73 S15G26    30.15F
BATON ROUGE    PTSUNNY   79  67  66 S15G22    30.12R
BOOTHVILLE     SUNNY     76  72  87 S14G22    30.18R
BELLE CHASSE   PTSUNNY   78  71  79 S15G24    30.15S
BOGALUSA*      CLOUDY    78  66  68 S14G20    30.15F
GALLIANO*      CLOUDY    77  69  76 SE15G22   30.16S
NEW ROADS*     CLOUDY    78  67  70 S13G22    30.11S
GONZALES*      PTSUNNY   80  67  65 S20G25    30.12S
HAMMOND*       PTSUNNY   79  64  61 S14G20    30.13S
HOUMA*         PTSUNNY   77  72  83 SE14G23   30.15R
PORT FOURCHON* CLOUDY    75  72  88 SE12      30.16R

$$

MSZ070-080>082-281800-
SOUTHERN MISSISSIPPI

CITY           SKY/WX    TMP DP  RH WIND       PRES   REMARKS
MCCOMB         CLOUDY    77  65  66 S15       30.13R
GULFPORT       PTSUNNY   77  71  82 S14G22    30.18S
BILOXI         SUNNY     75  70  83 S12       30.18R
PASCAGOULA     CLOUDY    75  67  76 S14G23    30.20R
STENNIS ARPT*  PTSUNNY   77  66  69 SE15      30.17F

$$

COASTAL OBSERVATIONS
LAKE AND NEARSHORE STATIONS

STATION/POSITION TIME  TEMP    WIND        PRES    WAVE
                       AIR SEA DIR/SP/G            HT/PER
                 (UTC) (F)     (DEG/KT/KT) (MB)    (FT/S)
PASCAGOULA       1648   73     130/  9/ 14 1022.4
WAVELAND YACHT   1648   70 67  160/  7/ 10 1021.7
GRAND ISLE       1648   73 69  140/  6/  9 1021.5
SOUTHWEST PASS   1648          140/  9/ 12   N/A
NEW CANAL        1648   78 67  200/ 11/ 18 1020.2
SHELL BEACH      1648   75 69  150/ 14/ 18 1021.6

OFFSHORE STATIONS

STATION/POSITION TIME  TEMP    WIND        PRES    WAVE
                       AIR SEA DIR/SP/G            HT/PER
                 (UTC) (F)     (DEG/KT/KT) (MB)    (FT/S)

$$





USA.gov is the U.S. government's official web portal to all federal, state and local government web resources and services.